Home   Weather   Chibougamau   Past weeks

Flag for Canada Past Weather in Chibougamau, Quebec, Canada — Yesterday and Last 2 Weeks

Now
41 °F

Fog.


Feels Like: 36 °F
Forecast: 42 / 60 °F
Wind: 7 mph from South

Location: Chibougamau-Chapais

Current Time: Sep 29, 2016 at 7:54:44 AM

Latest Report: Sep 29, 2016 at 7:00 AM


Visibility: 0 mi

Pressure: 30.59 "Hg

Humidity: 100%

Dew Point: 41 °F

Location of ChibougamauLocation

Past Weather in Chibougamau — Graph

°F

Chibougamau Temperature Yesterday

Maximum temperature yesterday: 48 °F (at 1:00 PM)
Minimum temperature yesterday: 41 °F (at 6:00 AM)
Average temperature yesterday: 45 °F

High & Low Weather Summary for the Past Weeks

 TemperatureHumidityPressure
High68 °F (Sep 19, 2:00 PM)100% (Sep 17, 4:00 PM)30.57 "Hg (Sep 17, 4:00 PM)
Low34 °F (Sep 25, 6:00 AM)48% (Sep 26, 3:00 PM)29.78 "Hg (Sep 27, 6:00 AM)
Average52 °F81%30.08 "Hg
* Reported Sep 14 6:00 AM — Sep 29 6:00 AM, Chibougamau, Weather by CustomWeather, © 2016

Note: Actual official high and low records may vary slightly from our data, if they occured in-between our weather recording intervals... More about our weather records

Advertising

Chibougamau Weather History for the Previous 24 Hours

Scroll right to see more
 ConditionsComfort  
Time TempWeatherWind HumidityBarometerVisibility
6:00 AM
Thu, Sep 29
37 °FPassing clouds.5 mph100%30.57 "Hg15 mi
9:00 PM
Wed, Sep 28
46 °FOvercast.7 mph93%30.50 "Hg12 mi
8:00 PM46 °FLow clouds.9 mph93%30.48 "Hg15 mi
7:00 PM46 °FLow clouds.9 mph93%30.47 "Hg15 mi
6:00 PM46 °FLow clouds.10 mph93%30.45 "Hg15 mi
5:00 PM48 °FOvercast.10 mph87%30.44 "Hg15 mi
4:00 PM48 °FOvercast.10 mph87%30.42 "Hg15 mi
3:00 PM48 °FOvercast.9 mph87%30.40 "Hg15 mi
2:00 PM48 °FLow clouds.10 mph87%30.40 "Hg15 mi
1:00 PM48 °FLow clouds.8 mph87%30.38 "Hg12 mi
12:00 PM46 °FLow clouds.12 mph93%30.38 "Hg12 mi
11:00 AM46 °FLow clouds.9 mph93%30.37 "Hg12 mi
10:00 AM43 °FLow clouds.10 mph100%30.35 "Hg12 mi
9:00 AM41 °FLight rain. Low clouds.8 mph100%30.33 "Hg8 mi
8:00 AM41 °FLight rain. Low clouds.8 mph100%30.30 "Hg8 mi
7:00 AM41 °FLight rain. Low clouds.6 mph100%30.27 "Hg8 mi
Weather by CustomWeather, © 2016

See weather overviewHow to use our weather pages